• Join FlightAware (Why Join?)
  • Login
  • US Flag 
12:23AM EST


 

Airport Tracker/Info


-or-


 

Live Flight TrackerFlight Track Log ✈ LXJ541 ✈ 19-Apr-2013 ✈ KLAS - KSNA

Flight Track Log - Related Links

Times and Time Zones

All times are in EDT time to prevent confusion due to time zone crossing. See the LXJ541 flight status page for this flight to view local times or setup timezone preferences in your user account.

Time Position Orientation Groundspeed Altitude Reporting Facility
EDT Latitude Longitude Course Direction KTS MPH feet Rate Location/Type
07:00PM 36.0456 -115.1864 221° Southwest 208 239 5,800  Level Los Angeles Center
07:01PM 36.0036 -115.2319 221° Southwest 255 293 6,900 722 Climbing Los Angeles Center
07:02PM 35.9756 -115.2886 239° Southwest 251 289 7,100 2,066 Climbing Los Angeles Center
07:03PM 35.8811 -115.3106 191° South 280 322 11,100 3,629 Climbing Los Angeles Center
07:04PM 35.7853 -115.3061 178° South 319 367 14,600 3,581 Climbing Los Angeles Center
07:05PM 35.6781 -115.3017 178° South 361 415 18,500 3,744 Climbing Los Angeles Center
07:06PM 35.6028 -115.3936 225° Southwest 372 428 22,400 2,400 Climbing Los Angeles Center
07:07PM 35.5311 -115.4925 228° Southwest 383 441 23,500 1,742 Climbing Los Angeles Center
07:08PM 35.4594 -115.5878 227° Southwest 391 450 26,000 1,210 Climbing Los Angeles Center
07:09PM 35.3661 -115.7125 227° Southwest 411 473 26,000  Level Los Angeles Center
07:10PM 35.2875 -115.8161 227° Southwest 415 478 26,000  Level Los Angeles Center
07:11PM 35.2103 -115.9206 228° Southwest 413 475 26,000  Level Los Angeles Center
07:12PM 35.1167 -116.0431 227° Southwest 412 474 26,000 -131 Level Los Angeles Center
07:13PM 35.0386 -116.1472 228° Southwest 414 476 25,700 -871 Descending Los Angeles Center
07:14PM 34.9397 -116.2747 227° Southwest 425 489 24,200 -823 Descending Los Angeles Center
07:16PM 34.8578 -116.3822 227° Southwest 432 497 24,000 -97 Descending Los Angeles Center
07:17PM 34.7900 -116.4694 227° Southwest 368 423 24,000 -435 Level Los Angeles Center
07:18PM 34.7219 -116.5547 226° Southwest 351 404 23,100 -1,210 Descending Los Angeles Center
07:19PM 34.6517 -116.6411 225° Southwest 356 410 21,500 -1,536 Descending Los Angeles Center
07:20PM 34.5811 -116.7281 225° Southwest 360 414 19,900 -1,488 Descending Los Angeles Center
07:21PM 34.5108 -116.8128 225° Southwest 356 410 18,400 -1,548 Descending Los Angeles Center
07:22PM 34.4317 -116.9092 225° Southwest 335 386 16,700 -1,548 Descending Los Angeles Center
07:23PM 34.3667 -116.9878 225° Southwest 331 381 15,200 -1,403 Descending Los Angeles Center
07:24PM 34.3014 -117.0664 225° Southwest 330 380 13,800 -1,306 Descending Los Angeles Center
07:25PM 34.2333 -117.1292 217° Southwest 312 359 12,500 -1,306 Descending Los Angeles Center
07:26PM 34.1556 -117.2142 222° Southwest 322 371 11,100 -726 Descending Los Angeles Center
07:27PM 34.0756 -117.2939 220° Southwest 367 422 11,000 -532 Descending Los Angeles Center
07:28PM 34.0075 -117.3642 221° Southwest 320 368 10,000 -1,027 Descending Los Angeles Center
07:29PM 33.9500 -117.4167 217° Southwest 288 331 9,100 -1,156 Descending Southern California TRACON
07:30PM 33.8833 -117.4833 220° Southwest 303 349 7,900 -632 Descending Southern California TRACON
07:31PM 33.8333 -117.5333 220° Southwest 265 305 7,900 -77 Level Southern California TRACON
07:31PM 33.8253 -117.5458 232° Southwest 270 311 7,800 -837 Descending Los Angeles Center
07:32PM 33.7847 -117.6133 234° Southwest 226 260 6,700 -804 Descending Los Angeles Center
07:33PM 33.7833 -117.6500 267° West 205 236 6,500 -821 Descending Southern California TRACON
07:34PM 33.7833 -117.7333 270° West 221 254 5,400 -1,000 Descending Southern California TRACON
07:35PM 33.7833 -117.7833 270° West 197 227 4,500 -1,190 Descending Southern California TRACON
07:36PM 33.7500 -117.8167 220° Southwest 151 174 2,900 -1,559 Descending Southern California TRACON
07:37PM 33.7167 -117.8500 220° Southwest 126 145 1,200 -1,339 Descending Southern California TRACON
07:38PM 33.6833 -117.8667 203° Southwest 122 140 200 -1,000 Descending Southern California TRACON
07:40PM 33.6757 -117.8682 132° Southeast  Level Estimated
07:47PM 33.6757 -117.8682 132° Southeast  Level Estimated